Tracking 19576 objects as of 17-Feb-2019
HD Live streaming from Space Station
objects crossing your sky now

HONGYAN 1

Track HONGYAN 1 now!
10-day predictions


NORAD ID: 43914
Int'l Code: 2018-112F
Perigee: 1,097.7 km
Apogee: 1,107.6 km
Inclination: 50.0 °
Period: 107.2 minutes
Semi major axis: 7473 km
RCS: Unknown
Launch date: December 29, 2018
Source: People's Republic of China (PRC)
Launch site: Jiuquan Satellite Launch Center, China (JSC)
aabbcc
Your satellite tracking list
Your tracking list is empty




NASA's NSSDC Master Catalog

Two Line Element Set (TLE):
1 43914U 18112F   19048.49593101 -.00000129  00000-0  00000+0 0  9990
2 43914  50.0111   0.8309 0006595  27.3865 332.7358 13.43707851  6744
Source of the keplerian elements: AFSPC